x

Pt Arena - 19nm North Of Point Arena, Ca (46014) Weather Station

9:20am - Thu 20th Jul 2017 All times are PDT. -7 hours from GMT.

  • Wind
    22mph, 27mph gusts
  • Air Temp 57°f
  • Sea Pressure 1019.4mb
  • Pt Arena - 19nm North Of Point Arena, Ca
  • Pt Arena - 19nm North Of Point Arena, Ca

More Historic Weather Station data

Upgrade to MSW Pro to gain access to the past 30 days of data for over 8000 Wavebouys and Weather Stations around the globe.

Join Pro

Comparision Forecast

View Surf forecast
   
Thu 07/20 9:20am  -   -   -  22 27 mph 1019.4mb 57f
9:10am  -   -   -  20 27 mph 1019.4mb 57f
9:00am  -   -   -  20 25 mph 1019.3mb 57f
8:50am 4.5ft 6s 4s 20 25 mph 1019.4mb 57f
8:40am  -   -   -  20 25 mph 1019.3mb 57f
8:30am  -   -   -  20 25 mph 1019.1mb 57f
8:20am  -   -   -  20 25 mph 1019.1mb 57f
8:10am  -   -   -  22 27 mph 1019.1mb 57f
8:00am  -   -   -  20 25 mph 1019.1mb 56f
7:50am 4.5ft 6s 4s 20 25 mph 1019.1mb 56f
7:40am  -   -   -  20 25 mph 1019mb 57f
7:30am  -   -   -  20 25 mph 1019mb 56f
7:20am  -   -   -  20 25 mph 1018.9mb 56f
7:10am  -   -   -  20 27 mph 1018.9mb 56f
7:00am  -   -   -  18 25 mph 1019mb 56f
6:50am 4.5ft 6s 4s 20 25 mph 1019mb 56f
6:40am 4.5ft  -  4s 20 25 mph 1019mb 56f
6:30am  -   -   -  20 25 mph 1018.9mb 56f
6:20am  -   -   -  18 22 mph 1019mb 56f
6:10am  -   -   -  18 25 mph 1019mb 56f
6:00am  -   -   -  18 22 mph 1019mb 56f
5:50am 4.5ft 6s 4s 18 22 mph 1018.9mb 56f
5:40am 4.5ft  -  4s 20 22 mph 1018.6mb 56f
5:30am  -   -   -  20 22 mph 1018.6mb 56f
5:20am  -   -   -  18 22 mph 1018.5mb 56f
5:10am  -   -   -  18 22 mph 1018.5mb 56f
5:00am  -   -   -  20 25 mph 1018.4mb 56f
4:50am  -   -   -   -  mph 1018.3mb -
4:40am  -   -   -  20 27 mph 1018.3mb 56f
4:30am  -   -   -  20 22 mph 1018.3mb 56f
4:20am  -   -   -  20 25 mph 1018.1mb 56f
4:10am  -   -   -  20 27 mph 1018mb 56f
4:00am  -   -   -  20 25 mph 1018mb 56f
3:50am 5.5ft 6s 5s 20 25 mph 1018mb 56f
3:40am 5.5ft  -  5s 20 25 mph 1018mb 56f
3:30am  -   -   -  20 25 mph 1018mb 56f
3:20am  -   -   -  20 27 mph 1018mb 56f
3:10am  -   -   -  20 27 mph 1018mb 56f
3:00am  -   -   -  22 27 mph 1018mb 56f
2:50am 5ft 6s 4s 22 29 mph 1018mb 56f
2:40am 5ft  -  4s 22 27 mph 1018mb 56f
2:30am  -   -   -  22 27 mph 1018mb 56f
2:20am  -   -   -  22 27 mph 1018mb 56f
2:10am  -   -   -  22 27 mph 1018mb 57f
2:00am  -   -   -  22 29 mph 1018mb 57f
1:50am 5.5ft 6s 4s 22 29 mph 1018mb 57f
1:40am 5.5ft  -  4s 25 29 mph 1018mb 57f
1:30am  -   -   -  25 29 mph 1018mb 57f
1:20am  -   -   -  25 29 mph 1018mb 57f
1:10am  -   -   -  25 29 mph 1018.1mb 57f
1:00am  -   -   -  25 29 mph 1018mb 57f
12:50am 6ft 6s 5s 25 29 mph 1018mb 57f
12:40am 6ft  -  5s 25 29 mph 1018mb 57f
12:30am  -   -   -  25 29 mph 1018mb 57f
12:20am  -   -   -  22 29 mph 1018mb 57f
12:10am  -   -   -  22 29 mph 1018mb 58f
12:00am  -   -   -  22 29 mph 1018mb 58f
Wed 07/19 11:50pm 6ft 6s 5s 22 27 mph 1018mb 58f
11:40pm 6ft  -  5s 22 27 mph 1018mb 57f
11:30pm  -   -   -  20 25 mph 1018mb 57f
11:20pm  -   -   -  20 27 mph 1018.1mb 57f
11:10pm  -   -   -  20 25 mph 1018.3mb 57f
11:00pm  -   -   -  18 22 mph 1018.3mb 57f
10:50pm 6ft 6s 5s 18 22 mph 1018.4mb 57f
10:40pm  -   -   -  16 22 mph 1018.4mb 57f
10:30pm  -   -   -  16 20 mph 1018.4mb 57f
10:20pm  -   -   -  16 18 mph 1018.4mb 57f
10:10pm  -   -   -  13 18 mph 1018.4mb 57f
10:00pm  -   -   -  13 18 mph 1018.3mb 57f
9:50pm 6ft 6s 5s 13 18 mph 1018.3mb 57f
9:40pm 6ft  -  5s 13 18 mph 1018.3mb 57f
9:30pm  -   -   -  13 16 mph 1018.1mb 57f
9:20pm  -   -   -  13 18 mph 1018mb 57f
9:10pm  -   -   -  13 18 mph 1018mb 57f
9:00pm  -   -   -  16 18 mph 1018mb 57f
8:50pm 6.5ft 7s 5s 13 18 mph 1018mb 57f
8:40pm 6.5ft  -  5s 13 18 mph 1018mb 57f
8:30pm  -   -   -  13 18 mph 1017.8mb 57f
8:20pm  -   -   -  13 16 mph 1017.9mb 57f
8:10pm  -   -   -  13 18 mph 1017.8mb 57f
8:00pm  -   -   -  13 18 mph 1017.8mb 57f
7:50pm 6ft  -  5s 11 16 mph 1017.9mb 56f
7:40pm 6ft 6s 5s  -  mph - -
7:30pm  -   -   -  11 16 mph 1017.9mb 56f
7:20pm  -   -   -  13 18 mph 1017.9mb 57f
7:10pm  -   -   -  16 18 mph 1017.9mb 57f
7:00pm  -   -   -  16 18 mph 1017.8mb 57f
6:50pm 5.5ft 6s 5s 13 18 mph 1017.9mb 57f
6:40pm 5.5ft  -  5s 13 18 mph 1018mb 57f
6:30pm  -   -   -  13 18 mph 1018mb 57f
6:20pm  -   -   -  13 20 mph 1018mb 57f
6:10pm  -   -   -  13 16 mph 1018mb -
6:00pm  -   -   -  11 16 mph 1018mb 56f
5:50pm 5ft 6s 5s 11 13 mph 1018.1mb 56f
5:40pm 5ft  -  5s 9 11 mph 1018.3mb 56f
5:30pm  -   -   -  7 11 mph 1018.5mb 56f
5:20pm  -   -   -  9 9 mph 1018.5mb 56f
5:10pm  -   -   -  9 13 mph 1018.6mb 56f
5:00pm  -   -   -  11 13 mph 1018.6mb 56f
4:50pm  -   -   -  13 16 mph 1018.6mb 56f
4:40pm  -   -   -  13 16 mph 1018.6mb 56f
4:30pm  -   -   -  13 18 mph 1018.8mb 56f
4:20pm  -   -   -  13 16 mph 1018.9mb 56f
4:10pm  -   -   -  13 18 mph 1019mb 56f
4:00pm  -   -   -  16 18 mph 1019mb 56f
3:50pm 5ft 6s 5s 13 16 mph 1019mb 56f
3:40pm 5ft  -  5s 13 16 mph 1019mb 56f
3:30pm  -   -   -  11 13 mph 1019.1mb 56f
3:20pm  -   -   -  11 13 mph 1019.1mb 56f
3:10pm  -   -   -  13 16 mph 1019.3mb 56f
3:00pm  -   -   -  13 16 mph 1019.3mb 56f
2:50pm 5.5ft 6s 5s 13 16 mph 1019.3mb 56f
2:40pm  -   -   -  13 16 mph 1019.1mb 56f
2:30pm  -   -   -  13 18 mph 1019.3mb 56f
2:20pm  -   -   -  13 16 mph 1019.4mb 56f
2:10pm  -   -   -  13 18 mph 1019.4mb 56f
2:00pm  -   -   -  16 18 mph 1019.4mb 56f
1:50pm 6ft 6s 5s 16 18 mph 1019.4mb 56f
1:40pm 6ft  -  5s 18 20 mph 1019.3mb 56f
1:30pm  -   -   -  18 22 mph 1019.4mb 56f
1:20pm  -   -   -  18 22 mph 1019.4mb 56f
1:10pm  -   -   -  18 22 mph 1019.4mb 56f
1:00pm  -   -   -  18 22 mph 1019.4mb 56f
12:50pm 6ft 6s 5s 18 25 mph 1019.5mb 56f
12:40pm 6ft  -  5s 18 22 mph 1019.5mb 56f
12:30pm  -   -   -  20 25 mph 1019.4mb 56f
12:20pm  -   -   -  20 25 mph 1019.4mb 56f
12:10pm  -   -   -  20 27 mph 1019.4mb 56f
12:00pm  -   -   -  20 25 mph 1019.4mb 56f
11:50am 5.5ft 6s 5s 22 27 mph 1019.4mb 56f
11:40am  -   -   -  22 27 mph 1019.1mb 56f
11:30am  -   -   -  22 29 mph 1019.3mb 56f
11:20am  -   -   -  25 31 mph 1019.3mb 56f
11:10am  -   -   -  25 29 mph 1019mb 56f
11:00am  -   -   -  22 27 mph 1019mb 56f
10:50am 5ft 6s 5s 22 27 mph 1019mb 56f
10:40am 5ft  -  5s 22 29 mph 1019mb 56f
10:30am  -   -   -  22 27 mph 1019mb 56f
10:20am  -   -   -  22 27 mph 1019mb 56f
10:10am  -   -   -  20 25 mph 1019mb 56f
10:00am  -   -   -  20 25 mph 1018.9mb 56f
9:50am 5ft 6s 5s 20 25 mph 1018.9mb 56f
9:40am 5ft  -  5s 20 27 mph 1018.8mb 56f
9:30am  -   -   -  20 25 mph 1018.8mb 56f
9:20am  -   -   -  20 25 mph 1018.9mb 56f
9:10am  -   -   -  20 25 mph 1018.8mb 56f
9:00am  -   -   -  20 25 mph 1018.8mb 56f
8:50am 6ft 6s 5s 20 27 mph 1018.6mb 56f
8:40am 6ft  -  5s 22 25 mph 1018.6mb 56f
8:30am  -   -   -  22 27 mph 1018.5mb 56f
8:20am  -   -   -  22 25 mph 1018.4mb 56f
8:10am  -   -   -  22 25 mph 1018.3mb 56f
8:00am  -   -   -  22 27 mph 1018.3mb 56f
7:50am 5ft 6s 5s 22 27 mph 1018.3mb 56f
7:40am 5ft  -  5s 22 29 mph 1018.3mb 56f
7:30am  -   -   -  22 25 mph 1018.3mb 56f
7:20am  -   -   -  22 27 mph 1018mb 56f
7:10am  -   -   -  22 27 mph 1018mb 56f
7:00am  -   -   -  20 25 mph 1018mb 56f
6:50am 5ft 6s 5s 22 27 mph 1018mb 55f
6:40am 5ft  -  5s 20 25 mph 1017.8mb 55f
6:30am  -   -   -  20 25 mph 1017.8mb 55f
6:20am  -   -   -  22 27 mph 1017.8mb 56f
6:10am  -   -   -  22 27 mph 1017.8mb 56f
6:00am  -   -   -  22 29 mph 1017.8mb 55f
5:50am 5ft 6s 5s 22 27 mph 1017.5mb 55f
5:40am  -   -   -  22 27 mph 1017.5mb 55f
5:30am  -   -   -  22 27 mph 1017.4mb 55f
5:20am  -   -   -  22 27 mph 1017.3mb 55f
5:10am  -   -   -  22 29 mph 1017.3mb 55f
5:00am  -   -   -  22 27 mph 1017.3mb 55f
4:50am 5.5ft 6s 5s 22 27 mph 1017.3mb 55f
4:40am  -   -   -  22 27 mph 1017.1mb 55f
4:30am  -   -   -  22 27 mph 1017.1mb 55f
4:20am  -   -   -  22 27 mph 1017.1mb 55f
4:10am  -   -   -  22 27 mph 1017mb 55f
4:00am  -   -   -  20 27 mph 1017mb 55f
3:50am 5ft 6s 5s 20 27 mph 1017mb 55f
3:40am  -   -   -  22 27 mph 1016.9mb 55f
3:30am  -   -   -  22 27 mph 1017mb 55f
3:20am  -   -   -  20 27 mph 1017mb 55f
3:10am  -   -   -  22 25 mph 1017mb 55f
3:00am  -   -   -  22 27 mph 1017mb 55f
2:50am 5ft 6s 5s 22 27 mph 1017mb 55f
2:40am  -   -   -  22 27 mph 1017mb 55f
2:30am  -   -   -  22 27 mph 1017mb 55f
2:20am  -   -   -  22 27 mph 1017.1mb 55f
2:10am  -   -   -  22 27 mph 1017.3mb 55f
2:00am  -   -   -  22 27 mph 1017.3mb 55f
1:50am 6ft 7s 5s 22 27 mph 1017.3mb 55f
1:40am 6ft  -  5s 22 27 mph 1017.1mb 55f
1:30am  -   -   -  20 25 mph 1017.3mb 55f
1:20am  -   -   -  20 25 mph 1017.5mb 55f
1:10am  -   -   -  20 25 mph 1017.5mb 55f
1:00am  -   -   -  20 22 mph 1017.5mb 55f
12:50am 6ft 6s 5s 20 25 mph 1017.5mb 55f
12:40am 6ft  -  5s 20 25 mph 1017.5mb 55f
12:30am  -   -   -  18 22 mph 1017.5mb 55f
12:20am  -   -   -  20 25 mph 1017.5mb 55f
12:10am  -   -   -  20 25 mph 1017.5mb 55f
12:00am  -   -   -  20 22 mph 1017.5mb 55f
Tue 07/18 11:50pm 7ft 6s 5s 20 25 mph 1017.5mb 56f
11:40pm  -   -   -  18 22 mph 1017.6mb 56f
11:30pm  -   -   -  20 25 mph 1017.6mb 56f
11:20pm  -   -   -  18 22 mph 1017.6mb 56f
11:10pm  -   -   -  20 25 mph 1017.5mb 56f
11:00pm  -   -   -  20 22 mph 1017.5mb 56f
10:50pm 6.5ft 6s 5s 20 25 mph 1017.6mb 56f
10:40pm  -   -   -  20 22 mph 1017.6mb 56f
10:30pm  -   -   -  18 25 mph 1017.6mb 56f
10:20pm  -   -   -  20 25 mph 1017.5mb 56f
10:10pm  -   -   -  18 22 mph 1017.5mb 56f
10:00pm  -   -   -  18 22 mph 1017.6mb 56f
9:50pm 7ft 7s 5s 18 22 mph 1017.6mb 56f
9:40pm 7ft  -  5s  -  mph 1017.8mb 56f
9:30pm  -   -   -  18 22 mph 1017.5mb 56f
9:20pm  -   -   -  18 20 mph 1017.5mb 56f
9:10pm  -   -   -  18 22 mph 1017.5mb 56f
9:00pm  -   -   -  18 22 mph 1017.5mb 56f
8:50pm 6.5ft 7s 5s 18 22 mph 1017.5mb 56f
8:40pm  -   -   -  18 22 mph 1017.5mb 56f
8:30pm  -   -   -  18 22 mph 1017.5mb 56f
8:20pm  -   -   -  16 22 mph 1017.5mb 56f
8:10pm  -   -   -  16 20 mph 1017.5mb 56f
8:00pm  -   -   -  18 22 mph 1017.5mb 56f
7:50pm 5.5ft 6s 5s 16 20 mph 1017.5mb 56f
7:40pm 5.5ft  -  5s 16 20 mph 1017.5mb 56f
7:30pm  -   -   -  16 18 mph 1017.5mb 56f
7:20pm  -   -   -  13 18 mph 1017.5mb 56f
7:10pm  -   -   -  13 18 mph 1017.5mb 56f
7:00pm  -   -   -  13 18 mph 1017.6mb 56f
6:50pm 5ft 7s 5s 13 18 mph 1017.8mb 56f
6:40pm  -   -   -  16 20 mph 1017.8mb 56f
6:30pm  -   -   -  16 20 mph 1017.9mb 56f
6:20pm  -   -   -  16 18 mph 1018mb 56f
6:10pm  -   -   -  13 18 mph 1018mb 56f
6:00pm  -   -   -  13 16 mph 1018.1mb 56f
5:50pm 5ft 6s 5s 13 18 mph 1018.1mb 56f
5:40pm 5ft  -  5s 13 16 mph 1018.1mb 56f
5:30pm  -   -   -  13 16 mph 1018.3mb 56f
5:20pm  -   -   -   -  mph 1018.3mb -
5:10pm  -   -   -  13 16 mph 1018.3mb 56f
5:00pm  -   -   -  13 16 mph 1018.3mb 56f
4:50pm 5ft 7s 5s 13 16 mph 1018.3mb 56f
4:40pm 5ft  -  5s 13 18 mph 1018.3mb 56f
4:30pm  -   -   -  13 18 mph 1018.4mb 56f
4:20pm  -   -   -  13 18 mph 1018.3mb 56f
4:10pm  -   -   -  13 16 mph 1018.4mb 56f
4:00pm  -   -   -  13 18 mph 1018.5mb 56f
3:50pm 5.5ft 7s 5s 16 18 mph 1018.5mb 56f
3:40pm  -   -   -  16 20 mph 1018.5mb 56f
3:30pm  -   -   -  18 20 mph 1018.5mb 56f
3:20pm  -   -   -  18 22 mph 1018.5mb 56f
3:10pm  -   -   -  18 22 mph 1018.5mb 56f
3:00pm  -   -   -  18 22 mph 1018.5mb 56f
2:50pm 5.5ft 8s 5s 18 22 mph 1018.5mb 56f
2:40pm  -   -   -  18 22 mph 1018.5mb 56f
2:30pm  -   -   -  20 25 mph 1018.5mb 56f
2:20pm  -   -   -  20 22 mph 1018.5mb 56f
2:10pm  -   -   -  18 22 mph 1018.5mb 56f
2:00pm  -   -   -  18 22 mph 1018.5mb 56f
1:50pm 5ft 8s 5s 18 22 mph 1018.5mb 56f
1:40pm  -   -   -  18 22 mph 1018.5mb 56f
1:30pm  -   -   -  18 20 mph 1018.5mb 55f
1:20pm  -   -   -  18 22 mph 1018.5mb 55f
1:10pm  -   -   -  18 22 mph 1018.5mb 55f
1:00pm  -   -   -  18 22 mph 1018.5mb 55f
12:50pm 6ft 8s 5s 18 22 mph 1018.5mb 55f
12:40pm  -   -   -  18 22 mph 1018.5mb 55f
12:30pm  -   -   -  20 25 mph 1018.4mb 55f
12:20pm  -   -   -  20 25 mph 1018.3mb 55f
12:10pm  -   -   -  20 22 mph 1018.1mb 55f
12:00pm  -   -   -  20 25 mph 1018.1mb 55f
11:50am 6ft 8s 5s 20 27 mph 1018mb 55f
11:40am 6ft  -  5s 20 27 mph 1017.8mb 55f
11:30am  -   -   -  20 25 mph 1017.8mb 55f
11:20am  -   -   -  20 25 mph 1017.8mb 55f
11:10am  -   -   -  22 27 mph 1017.5mb 55f
11:00am  -   -   -  25 29 mph 1017.5mb 55f
10:50am 6.5ft 6s 5s 25 31 mph 1017.4mb 55f
10:40am  -   -   -  25 31 mph 1017.3mb 55f
10:30am  -   -   -  25 31 mph 1017.3mb 55f
10:20am  -   -   -  25 29 mph 1017.3mb 55f
10:10am  -   -   -  22 29 mph 1017.3mb 55f
10:00am  -   -   -  22 29 mph 1017.3mb 55f
9:50am 6.5ft 6s 5s 20 27 mph 1017.3mb 55f
9:40am 6.5ft  -  5s 20 27 mph 1017.1mb 54f
9:30am  -   -   -  18 22 mph 1017mb 54f
9:20am  -   -   -  20 25 mph 1017mb 54f
9:10am  -   -   -  22 25 mph 1016.6mb 54f
9:00am  -   -   -  20 25 mph 1016.5mb 54f
8:50am 6.5ft 7s 5s 20 27 mph 1016.4mb 54f
8:40am 6.5ft  -  5s 20 27 mph 1016.4mb 54f
8:30am  -   -   -  22 29 mph 1016.3mb 54f
8:20am  -   -   -  20 27 mph 1016.1mb 54f
8:10am  -   -   -  20 25 mph 1016.3mb 54f
8:00am  -   -   -  20 27 mph 1016.4mb 54f
7:50am 6ft 6s 5s 22 27 mph 1016.4mb 55f
7:40am 6ft  -  5s 22 29 mph 1016.4mb 54f
7:30am  -   -   -  20 25 mph 1016.3mb 54f
7:20am  -   -   -  20 27 mph 1016.1mb 55f
7:10am  -   -   -  22 31 mph 1016.3mb 55f
7:00am  -   -   -  25 34 mph 1016.3mb 55f
6:50am 7ft 7s 5s 22 29 mph 1016mb 55f
6:40am 7ft  -  5s 20 29 mph 1016mb 55f
6:30am  -   -   -  20 25 mph 1016mb 55f
6:20am  -   -   -  22 29 mph 1015.9mb 55f
6:10am  -   -   -  20 29 mph 1015.8mb 55f
6:00am  -   -   -  22 27 mph 1015.6mb 55f
5:50am 6.5ft 7s 5s 22 31 mph 1015.5mb 55f
5:40am 6.5ft  -  5s 25 31 mph 1015.4mb 55f
5:30am  -   -   -  22 29 mph 1015.1mb 54f
5:20am  -   -   -  25 31 mph 1015mb 55f
5:10am  -   -   -  22 31 mph 1015mb 55f
5:00am  -   -   -  22 27 mph 1015mb 55f
4:50am 7.5ft 7s 5s 22 31 mph 1015mb 55f
4:40am 7.5ft  -  5s 25 29 mph 1014.8mb 55f
4:30am  -   -   -  25 31 mph 1014.5mb 54f
4:20am  -   -   -  25 29 mph 1014.5mb 54f
4:10am  -   -   -  25 31 mph 1014.5mb 54f
4:00am  -   -   -  25 31 mph 1014.5mb 55f
3:50am 8ft 7s 5s 25 31 mph 1014.4mb 55f
3:40am  -   -   -  25 31 mph 1014.3mb -
3:30am  -   -   -  25 31 mph 1014.3mb 55f
3:20am  -   -   -  27 31 mph 1014.3mb 54f
3:10am  -   -   -  27 34 mph 1014.1mb 54f
3:00am  -   -   -  25 31 mph 1014.1mb 54f
2:50am 7.5ft 7s 5s 25 31 mph 1014.3mb 55f
2:40am  -   -   -  25 29 mph 1014.3mb 55f
2:30am  -   -   -  25 31 mph 1014mb 55f
2:20am  -   -   -  25 31 mph 1014mb 55f
2:10am  -   -   -  25 31 mph 1014mb 55f
2:00am  -   -   -  25 31 mph 1014mb 55f
1:50am 8ft 7s 6s 22 31 mph 1014mb 55f
1:40am 8ft  -  6s 22 29 mph 1014.1mb 55f
1:30am  -   -   -  22 29 mph 1014.1mb 55f
1:20am  -   -   -  22 29 mph 1014mb 55f
1:10am  -   -   -  22 29 mph 1014mb 55f
1:00am  -   -   -  22 29 mph 1014.1mb 55f
12:50am 7.5ft 8s 5s 22 27 mph 1014.3mb 55f
12:40am 7.5ft  -  5s 22 29 mph 1014.3mb 55f
12:30am  -   -   -  22 29 mph 1014.3mb 55f
12:20am  -   -   -  22 27 mph 1014.3mb 55f
12:10am  -   -   -  22 27 mph 1014.3mb 55f
12:00am  -   -   -  22 27 mph 1014.4mb 55f
Mon 07/17 11:50pm 8.5ft 8s 6s 20 27 mph 1014.4mb 55f
11:40pm 8.5ft  -  6s 22 27 mph 1014.4mb 55f
11:30pm  -   -   -  20 25 mph 1014.5mb 55f
11:20pm  -   -   -  20 25 mph 1014.5mb 55f
11:10pm  -   -   -  18 22 mph 1014.6mb 55f
11:00pm  -   -   -  18 22 mph 1014.6mb 55f
10:50pm 7.5ft 8s 6s 18 22 mph 1014.5mb 55f
10:40pm 7.5ft  -  6s 18 22 mph 1014.6mb 55f
10:30pm  -   -   -  18 22 mph 1014.5mb 55f
10:20pm  -   -   -  20 25 mph 1014.5mb 55f
10:10pm  -   -   -  20 25 mph 1014.5mb 55f
10:00pm  -   -   -  20 27 mph 1014.3mb 55f
9:50pm 7.5ft 7s 6s 20 25 mph 1014.1mb 55f
9:40pm  -   -   -  20 25 mph 1014mb 55f
9:30pm  -   -   -  18 22 mph 1014.1mb 55f
9:20pm  -   -   -  16 20 mph 1014mb 55f
9:10pm  -   -   -  16 20 mph 1014.1mb 55f
9:00pm  -   -   -  16 22 mph 1014.1mb 55f
8:50pm 7.5ft 8s 6s 16 20 mph 1014mb 55f
8:40pm 7.5ft  -  6s 16 20 mph 1014.1mb 55f
8:30pm  -   -   -  16 20 mph 1014.1mb 55f
8:20pm  -   -   -  16 20 mph 1014.1mb 55f
8:10pm  -   -   -  16 18 mph 1014mb 55f
8:00pm  -   -   -  13 18 mph 1014mb 55f
7:50pm 7.5ft 8s 6s 13 20 mph 1014mb 55f
7:40pm  -   -   -  13 18 mph 1014mb 55f
7:30pm  -   -   -  13 18 mph 1014.1mb 55f
7:20pm  -   -   -  13 18 mph 1014.3mb 55f
7:10pm  -   -   -  13 18 mph 1014.5mb 55f
7:00pm  -   -   -  13 16 mph 1014.4mb 55f
6:50pm 7.5ft 8s 6s 13 18 mph 1014.3mb 55f
6:40pm 7.5ft  -  6s 13 18 mph 1014.4mb 55f
6:30pm  -   -   -  13 18 mph 1014.4mb 55f
6:20pm  -   -   -  13 18 mph 1014.4mb 55f
6:10pm  -   -   -  13 18 mph 1014.4mb 55f
6:00pm  -   -   -   -  mph 1014.8mb 55f
5:50pm 7.5ft 8s 6s 13 18 mph 1014.5mb 55f
5:40pm 7.5ft  -  6s 13 18 mph 1014.8mb 55f
5:30pm  -   -   -  13 18 mph 1014.8mb 55f
5:20pm  -   -   -  13 18 mph 1014.8mb 55f
5:10pm  -   -   -  13 18 mph 1014.8mb 55f
5:00pm  -   -   -  16 20 mph 1014.6mb 55f
4:50pm 7ft 9s 6s 16 18 mph 1014.8mb 55f
4:40pm  -   -   -  13 18 mph 1014.8mb 55f
4:30pm  -   -   -  13 16 mph 1015mb 55f
4:20pm  -   -   -  13 18 mph 1015mb 55f
4:10pm  -   -   -  13 18 mph 1015.1mb 55f
4:00pm  -   -   -  13 18 mph 1015mb 55f
3:50pm 7ft 8s 6s 13 18 mph 1015.1mb 55f
3:40pm  -   -   -  13 18 mph 1015.3mb 55f
3:30pm  -   -   -  16 20 mph 1015.3mb 55f
3:20pm  -   -   -  13 18 mph 1015.4mb 55f
3:10pm  -   -   -  13 18 mph 1015.4mb 54f
3:00pm  -   -   -  13 18 mph 1015.4mb 54f
2:50pm 7ft 9s 6s 16 18 mph 1015.4mb 54f
2:40pm 7ft  -  6s 16 20 mph 1015.5mb 54f
2:30pm  -   -   -  16 18 mph 1015.5mb 54f
2:20pm  -   -   -  16 20 mph 1015.5mb 54f
2:10pm  -   -   -  16 20 mph 1015.5mb 54f
2:00pm  -   -   -  16 18 mph 1015.6mb 54f
1:50pm 7.5ft 8s 6s 16 18 mph 1015.8mb 54f
1:40pm  -   -   -  16 20 mph 1015.9mb 53f
1:30pm  -   -   -  18 22 mph 1015.8mb 54f
1:20pm  -   -   -  20 25 mph 1015.6mb 54f
1:10pm  -   -   -  20 25 mph 1015.6mb 54f
1:00pm  -   -   -  20 25 mph 1015.8mb 53f
12:50pm 7.5ft 8s 6s 20 25 mph 1015.8mb 53f
12:40pm 7.5ft  -  6s 20 25 mph 1015.8mb 53f
12:30pm  -   -   -  20 25 mph 1015.9mb 53f
12:20pm  -   -   -  20 25 mph 1015.9mb 53f
12:10pm  -   -   -  20 25 mph 1015.9mb 53f
12:00pm  -   -   -  20 25 mph 1015.9mb 53f
11:50am 8ft 8s 6s 20 25 mph 1015.8mb 53f
11:40am  -   -   -  20 27 mph 1015.8mb 53f
11:30am  -   -   -  22 29 mph 1015.5mb 53f
11:20am  -   -   -  22 27 mph 1015.5mb 53f
11:10am  -   -   -  22 29 mph 1015.4mb 53f
11:00am  -   -   -  22 29 mph 1015.3mb 53f
10:50am 8ft 9s 6s 20 27 mph 1015.5mb 53f
10:40am 8ft  -  6s 20 25 mph 1015.5mb 53f
10:30am  -   -   -  20 25 mph 1015.4mb 53f
10:20am  -   -   -  20 27 mph 1015.4mb 53f
10:10am  -   -   -  20 25 mph 1015.4mb 53f
10:00am  -   -   -  20 27 mph 1015.3mb 53f
9:50am 8ft 8s 6s 20 27 mph 1015.3mb 53f
9:40am  -   -   -  20 25 mph 1015.3mb 53f
9:30am  -   -   -  22 27 mph 1015.3mb 53f
9:20am  -   -   -  20 27 mph 1015.3mb 53f
9:10am  -   -   -  22 27 mph 1015.3mb 53f
9:00am  -   -   -  22 29 mph 1015.1mb 53f
8:50am 8ft 8s 6s 22 29 mph 1015mb 53f
8:40am 8ft  -  6s 25 29 mph 1015mb 53f
8:30am  -   -   -  25 29 mph 1015mb 53f
8:20am  -   -   -  22 29 mph 1014.9mb 53f
8:10am  -   -   -  22 29 mph 1014.8mb 53f
8:00am  -   -   -  22 31 mph 1014.8mb 53f
7:50am 8ft 8s 6s 22 29 mph 1014.6mb 53f
7:40am 8ft  -  6s 22 31 mph 1014.5mb 53f
7:30am  -   -   -  20 25 mph 1014.5mb 53f
7:20am  -   -   -  25 29 mph 1014.5mb 53f
7:10am  -   -   -  25 31 mph 1014.4mb 53f
7:00am  -   -   -  25 31 mph 1014.3mb 54f
6:50am 8ft 8s 6s 25 31 mph 1014.3mb 54f
6:40am 8ft  -  6s 25 31 mph 1014.1mb 54f
6:30am  -   -   -  25 29 mph 1014mb 54f
6:20am  -   -   -  22 29 mph 1014mb 54f
6:10am  -   -   -  25 29 mph 1013.8mb 54f
6:00am  -   -   -  22 29 mph 1013.8mb 54f
5:50am 8ft 8s 6s 25 31 mph 1013.8mb 54f
5:40am 8ft  -  6s 22 29 mph 1013.6mb 54f
5:30am  -   -   -  22 27 mph 1013.6mb 54f
5:20am  -   -   -  22 29 mph 1013.5mb 54f
5:10am  -   -   -  22 29 mph 1013.5mb 54f
5:00am  -   -   -  22 29 mph 1013.4mb 54f
4:50am 8ft 8s 6s 22 29 mph 1013.4mb 54f
4:40am 8ft  -  6s 25 29 mph 1013.3mb 55f
4:30am  -   -   -  22 29 mph 1013.4mb 55f
4:20am  -   -   -  22 29 mph 1013.4mb 55f
4:10am  -   -   -  25 31 mph 1013.4mb 55f
4:00am  -   -   -  25 31 mph 1013.5mb 55f
3:50am 8.5ft 8s 6s 25 31 mph 1013.4mb 55f
3:40am 8.5ft  -  6s 25 29 mph 1013.4mb 55f
3:30am  -   -   -  25 29 mph 1013.5mb 55f
3:20am  -   -   -  22 29 mph 1013.5mb 55f
3:10am  -   -   -  20 27 mph 1013.6mb 55f
3:00am  -   -   -  20 27 mph 1013.9mb 55f
2:50am 8.5ft 7s 6s 20 27 mph 1014mb 55f
2:40am 8.5ft  -  6s 20 27 mph 1014mb 55f
2:30am  -   -   -  20 27 mph 1014mb 55f
2:20am  -   -   -  20 25 mph 1014.1mb 55f
2:10am  -   -   -  20 25 mph 1014.3mb 55f
2:00am  -   -   -  20 25 mph 1014.3mb 55f
1:50am 9.5ft 8s 6s 20 29 mph 1014.4mb 55f
1:40am  -   -   -  22 29 mph 1014.3mb 55f
1:30am  -   -   -  22 29 mph 1014.3mb 55f
1:20am  -   -   -  22 29 mph 1014.4mb 55f
1:10am  -   -   -  22 29 mph 1014.3mb 55f
1:00am  -   -   -  22 29 mph 1014.4mb 55f
12:50am 9ft 8s 6s 20 27 mph 1014.5mb 55f
12:40am 9ft  -  6s 18 25 mph 1014.6mb 55f
12:30am  -   -   -  18 22 mph 1014.8mb 55f
12:20am  -   -   -  18 22 mph 1014.8mb 55f
12:10am  -   -   -  20 27 mph 1014.8mb 55f
12:00am  -   -   -  22 29 mph 1014.6mb 56f
Sun 07/16 11:50pm 8ft 8s 6s 22 31 mph 1014.5mb 56f
11:40pm  -   -   -  27 31 mph 1014.4mb 56f
11:30pm  -   -   -  27 34 mph 1014.3mb 56f
11:20pm  -   -   -  27 34 mph 1014.3mb 55f
11:10pm  -   -   -  27 34 mph 1014.3mb 56f
11:00pm  -   -   -  27 34 mph 1014.1mb 56f
10:50pm 9ft 7s 6s 27 34 mph 1014mb 56f
10:40pm 9ft  -  6s 27 31 mph 1014mb 56f
10:30pm  -   -   -  25 34 mph 1014mb 56f
10:20pm  -   -   -  20 27 mph 1014.3mb 56f
10:10pm  -   -   -  20 27 mph 1014.3mb 56f
10:00pm  -   -   -  20 25 mph 1014.1mb 56f
9:50pm 9ft 8s 6s 18 22 mph 1014.1mb 56f
9:40pm 9ft  -  6s 20 25 mph 1014mb 56f
9:30pm  -   -   -  20 25 mph 1014mb 56f
9:20pm  -   -   -  18 22 mph 1014mb 56f
9:10pm  -   -   -  13 20 mph 1014mb 56f
9:00pm  -   -   -  16 20 mph 1014mb 56f
8:50pm 9ft 7s 6s 18 22 mph 1014mb 56f
8:40pm 9ft  -  6s 18 25 mph 1013.9mb 56f
8:30pm  -   -   -  16 20 mph 1013.9mb 56f
8:20pm  -   -   -  16 20 mph 1014mb 56f
8:10pm  -   -   -  16 20 mph 1013.9mb 56f
8:00pm  -   -   -  16 20 mph 1013.8mb 56f
7:50pm 9ft 8s 6s 16 20 mph 1013.8mb 56f
7:40pm 9ft  -  6s 16 20 mph 1013.8mb 56f
7:30pm  -   -   -  16 20 mph 1013.8mb 56f
7:20pm  -   -   -  16 20 mph 1014mb 56f
7:10pm  -   -   -  13 18 mph 1014mb 56f
7:00pm  -   -   -  13 18 mph 1014mb 56f
6:50pm 8ft 8s 6s 11 18 mph 1014mb 56f
6:40pm 8ft  -  6s 13 18 mph 1013.9mb 56f
6:30pm  -   -   -  13 18 mph 1013.9mb 56f
6:20pm  -   -   -  13 18 mph 1013.9mb 56f
6:10pm  -   -   -  13 16 mph 1013.9mb 56f
6:00pm  -   -   -  11 16 mph 1014mb 56f
5:50pm 7ft 8s 6s 13 16 mph 1014.1mb 56f
5:40pm 7ft  -  6s 16 18 mph 1014.1mb 56f
5:30pm  -   -   -  13 18 mph 1014.1mb 56f
5:20pm  -   -   -  13 18 mph 1014.4mb 56f